Regional Weather Roundup
Issued by NWS

Home | Current Version | Previous Version | Text Only | Print | Product List | Glossary On
Versions: 1 2 3 4 5 6 7 8 9 10 11 12 13 14 15 16 17 18 19 20 21 22 23 24 25 26 27 28 29 30 31 32 33 34 35 36 37 38 39 40 41 42 43 44 45 46 47 48 49 50
000
ASCA44 KEWX 230120
RWRMX

LATIN AMERICA AND CARIBBEAN REGIONAL WEATHER ROUNDUP
NATIONAL WEATHER SERVICE AUSTIN/SAN ANTONIO TX
800 PM CDT FRI MAY 22 2015

NOTE: "FAIR" INDICATED FEW OR NO CLOUDS BELOW 12,000 FEET WITH NO
SIGNIFICANT WEATHER AND/OR OBSTRUCTIONS TO VISIBILITY.

BAJA CALIFORNIA

CITY           SKY/WX    TMP DP  RH WIND       PRES   REMARKS
LORETO         PTSUNNY   77  63  61 NE7       29.89F
LA PAZ         PTSUNNY   81  61  50 NW9       29.93S
MEXICALI       MOSUNNY   75  39  27 NW25      29.89S
S.J. DEL CABO  PTSUNNY   81  66  61 S14       29.91R
TIJUANA        PTSUNNY   63  48  59 SW7       30.08R

NORTHWESTERN MEXICO

CITY           SKY/WX    TMP DP  RH WIND       PRES   REMARKS
CULIACAN       MOCLDY    90  57  33 W14       29.88R
DURANGO        MOCLDY    79  36  21 SW7       30.17R
GUAYMAS        PTSUNNY   82  39  21 SW12      29.85S
HERMOSILLO     PTSUNNY   86  32  14 S14       29.92S
CD. JUAREZ     PTSUNNY   88  39  18 W17       29.80F
LOS MOCHIS     CLOUDY    79  55  44 NW8       29.90S
OBREGON        LGT RAIN  84  36  17 SW6       29.87F

NORTHEASTERN MEXICO

CITY           SKY/WX    TMP DP  RH WIND       PRES   REMARKS
CHIHUAHUA      CLOUDY    84  34  16 SW24      29.96R
MATAMOROS      MOCLDY    82  75  78 E12       30.00S
MONCLOVA         N/A    N/A N/A N/A MISG        N/A
MONTERREY      MOCLDY    81  68  65 SE7       29.96S
NUEVO LAREDO   MOCLDY    88  73  62 S8        29.93S HX  96
PIEDRAS NEGRAS   N/A    N/A N/A N/A MISG        N/A
REYNOSA        MOCLDY    79  72  78 E14       29.95S
SALTILLO       MOCLDY    72  59  64 N9        30.15R
TORREON        PTCLDY    88  52  29 SE7       29.97S
CD. VICTORIA   MOCLDY    84  68  58 S6        29.95S

WESTERN MEXICO

CITY           SKY/WX    TMP DP  RH WIND       PRES   REMARKS
AGUASCALIENTES MOCLDY    79  36  21 SW7       30.18S
COLIMA         MOCLDY    75  66  73 SW12      30.03R
DEL BAJIO      MOCLDY    73  55  53 NE8       30.25R
GUADALAJARA    MOCLDY    81  52  36 S6        30.09S
MANZANILLO     PTCLDY    84  79  84 W12       29.84R HX  96
MAZATLAN       PTCLDY    82  61  47 W13       29.87R
P. VALLARTA    MOCLDY    84  72  65 SW9       29.89R
URUAPAN          N/A    N/A N/A N/A MISG        N/A
ZACATECAS      MOCLDY    68  41  37 S12       30.26F

CENTRAL MEXICO

CITY           SKY/WX    TMP DP  RH WIND       PRES   REMARKS
CUERNAVACA       N/A    N/A N/A N/A MISG        N/A
MEXICO CITY    TSTM      59  52  77 E5        30.40
MORELIA        MOCLDY    70  59  68 S13       30.22R
POZA RICA      MOCLDY    84  72  65 E7        29.98R
PUEBLA         DRIZZLE   55  52  88 NW3       30.40R
QUERETARO      MOCLDY    73  55  53 NE9       30.27R
S. LUIS POTOSI MOCLDY    70  59  68 E6        30.21S
TAMPICO        MOCLDY    81  73  78 E12       29.96S
TOLUCA         CLOUDY    59  48  67 NE2       30.42R

SOUTHERN MEXICO

CITY           SKY/WX    TMP DP  RH WIND       PRES   REMARKS
ACAPULCO       MOCLDY    88  72  58 SW6       29.86R HX  94
B. DE HUATULCO MOCLDY    79  68  69 CALM      29.89F
OAXACA         CLOUDY    72  54  53 E10       30.25R
P. ESCONDIDO     N/A    N/A N/A N/A MISG        N/A
VERACRUZ       CLOUDY    81  73  78 N3        29.96S
ZIHUATANEJO    MOCLDY    86  73  66 W3        29.87R HX  93

YUCATAN PENINSULA

CITY           SKY/WX    TMP DP  RH WIND       PRES   REMARKS
CAMPECHE       PTCLDY    88  77  70 N6        29.90R HX 100
CANCUN         PTCLDY    82  73  74 E9        30.05R
CHETUMAL       PTCLDY    84  73  70 E12       29.99R HX  91
CD. DEL CARMEN CLOUDY    84  77  79 NE21      29.93R HX  94
COZUMEL        PTCLDY    79  73  83 CALM      30.04R
MERIDA         PTCLDY    84  70  61 NE12      29.97R
MINATITLAN     MOCLDY    82  68  61 N12       29.88S
TAPACHULA      MOCLDY    86  77  74 CALM      29.87R HX  97
TUX. GUTIERREZ MOCLDY    82  66  57 NW14      29.91R
VILLAHERMOSA   MOCLDY    82  73  74 NW6       29.92R

CENTRAL AMERICA

CITY           SKY/WX    TMP DP  RH WIND       PRES   REMARKS
MANAGUA        PTCLDY    79  73  83 E5        29.89R

CARIBBEAN

CITY           SKY/WX    TMP DP  RH WIND       PRES   REMARKS
ARUBA          PTCLDY    82  73  74 E23       29.94R
KINGSTON       PTCLDY    82  75  78 N9        30.00S
NASSAU           N/A     81  73  78 VRB3      30.14R
SAN JUAN       PTCLDY    82  75  78 E6        30.13R
SANTO DOMINGO  MOCLDY    82  75  78 SE6       30.06S
ST. CROIX      PTCLDY    81  73  78 E14       30.12R
ST. KITTS      PTCLDY    81  73  78 E13       30.12R
ST. MAARTEN    PTCLDY    82  73  74 E12       30.12S
ST. THOMAS     MOCLDY    82  73  74 E5        30.12R

$$



USA.gov is the U.S. government's official web portal to all federal, state and local government web resources and services.